Regional Weather Roundup
Issued by NWS

Home | Current Version | Previous Version | Graphics & Text | Print | Product List | Glossary On
Versions: 1 2 3 4 5 6 7 8 9 10 11 12 13 14 15 16 17 18 19 20 21 22 23 24 25 26 27 28 29 30 31 32 33 34 35 36 37 38 39 40 41 42 43 44 45 46 47 48 49 50
000
ASUS43 KMPX 020101
RWRMN
WEATHER ROUNDUP FOR MINNESOTA
NATIONAL WEATHER SERVICE TWIN CITIES/CHANHASSEN MN
800 PM CDT WED JUL 01 2015


NOTE: "FAIR" INDICATES FEW OR NO CLOUDS BELOW 12,000 FEET WITH NO
SIGNIFICANT WEATHER AND/OR OBSTRUCTIONS TO VISIBILITY. N/A MEANS
CURRENT SKY AND/OR WEATHER CONDITIONS ARE NOT AVAILABLE.

MNZ060>063-068>070-020200-
   Twin Cities Metro

CITY           SKY/WX    TMP DP  RH WIND       PRES   REMARKS
TWIN CITIES    PTCLDY    71  53  52 W7        29.99R
ST PAUL        CLEAR     71  53  52 E5        30.00R
CRYSTAL        CLEAR     72  50  45 W7        29.99R
BLAINE         PTCLDY    73  52  46 CALM      29.99R
LAKEVILLE      CLEAR     64  57  77 CALM      30.01R
EDEN PRAIRIE   CLEAR     67  52  58 W6        29.99R
SOUTH ST PAUL  CLEAR     71  55  56 SW3       29.99R
LAKE ELMO      FAIR      72  54  53 CALM      30.01R
$$
MNZ001>005-007-008-013>017-022>024-027-028-020200-
   Northwest Minnesota

CITY           SKY/WX    TMP DP  RH WIND       PRES   REMARKS
BEMIDJI        CLOUDY    71  61  71 CALM      29.97R
HALLOCK        MOSUNNY   75  61  60 SW5       29.92S
ROSEAU         PTSUNNY   73  63  68 CALM      29.94S
WARROAD        PTSUNNY   73  63  68 CALM      29.94S
THIEF RVR FALL MOSUNNY   73  61  64 SW6       29.95S
CROOKSTON      SUNNY     75  63  64 SW5       29.95S
FOSSTON        SUNNY     72  59  64 CALM      29.97S
DETROIT LAKES  SUNNY     72  54  53 SW5       30.00R
MOORHEAD       SUNNY     72  57  60 S6        29.96S
PARK RAPIDS    CLOUDY    73  56  54 SW6       29.98R
MAHNOMEN       FAIR      73  57  58 SW7       29.97S
$$
MNZ006-009>011-018-025>026-020200-
   North Central Minnesota

CITY           SKY/WX    TMP DP  RH WIND       PRES   REMARKS
BAUDETTE         N/A     74  60  61 CALM      29.94S
FLAG ISLAND    PTSUNNY   72  64  78 S5        29.92S
INTL FALLS     MOSUNNY   70  59  68 SE5       29.95S
WASKISH        PTSUNNY   73  59  60 CALM      29.96R
BIG FORK       MOSUNNY  N/A N/A N/A CALM      29.97S
LONGVILLE      CLOUDY    72  59  64 CALM      29.98S
GRAND RAPIDS   PTSUNNY   72  55  56 S3        29.99R
CRANE LAKE     CLEAR     66  61  82 CALM      29.98S
ORR            PTCLDY    68  57  68 CALM      29.95R
COOK           PTCLDY    70  59  68 CALM      29.98S
WALKER         CLOUDY    67  63  85 CALM      29.98R
$$
MNZ012-019>021-037-020200-
   Northeast Minnesota

CITY           SKY/WX    TMP DP  RH WIND       PRES   REMARKS
DULUTH         MOCLDY    66  51  58 SE7       30.00R
ELY            CLEAR     70  54  56 S3        29.99R
HIBBING        PTCLDY    71  58  63 CALM      29.98R
EVELETH        PTCLDY    72  59  64 CALM      30.00R
DULUTH HARBOR  PTCLDY    63  57  82 NE7       30.01R
SILVER BAY     CLEAR     63  50  63 CALM      30.00R
GRAND MARAIS     N/A     55  51  86 W3        30.01S
G MARAIS ARPRT PTCLDY    57  45  62 S3        30.03F
$$
MNZ029>031-032-039>041-046>048-054>057-064-020200-
   West Central Minnesota

CITY           SKY/WX    TMP DP  RH WIND       PRES   REMARKS
FERGUS FALLS   SUNNY     70  55  60 S7        29.97S
WHEATON        SUNNY     66  54  63 SE7       29.98F
MORRIS         SUNNY     70  55  60 SE6       29.98S
ALEXANDRIA     SUNNY     69  56  62 S7        30.01S
ELBOW LAKE     FAIR      68  55  62 S7        29.98S
WADENA           N/A     72  54  53 SW5       29.99S
GLENWOOD       SUNNY     66  57  72 S5        30.01S
APPLETON       SUNNY     70  55  60 SE5       29.97F
BENSON         MOSUNNY   68  54  60 S5        29.99S
ORTONVILLE     SUNNY     68  55  64 E8        29.97S
MADISON        SUNNY     68  54  60 E8        29.98S
WILLMAR        FAIR      70  57  64 CALM      30.01S
$$
MNZ033>034-036-042>043-049>051-058-059-020200-
   Central Minnesota

CITY           SKY/WX    TMP DP  RH WIND       PRES   REMARKS
ST CLOUD       CLEAR     70  52  52 S5        29.99S
SAUK CENTRE    FAIR      68  57  68 S3        30.00S
PAYNESVILLE    SUNNY     65  54  66 CALM      30.01R
AITKIN         MOCLDY    72  57  60 S3        29.98S
PINE RIVER       N/A     72  57  60 S3        30.02R
BRAINERD       MOSUNNY   72  54  53 S7        29.99S
STAPLES        SUNNY     72  54  53 SW5       29.99S
LONG PRAIRIE   FAIR      68  55  64 SE6       30.01R
LITTLE FALLS   SUNNY     72  50  46 S3        30.00R
LITCHFIELD     CLEAR     68  54  60 SE3       30.01S
BUFFALO        CLEAR     68  51  55 CALM      30.01S
MAPLE LAKE     CLEAR     69  55  61 CALM      30.01S
$$
MNZ037-044-045-052-053-020200-
   East Central Minnesota

CITY           SKY/WX    TMP DP  RH WIND       PRES   REMARKS
PRINCETON      CLEAR     73  54  49 CALM      30.00R
MORA           CLEAR     70  52  52 CALM      30.01S
CAMBRIDGE      CLEAR     73  55  53 CALM      29.98R
RUSH CITY      CLEAR     69  58  67 CALM      29.99S
MOOSE LAKE     CLEAR     70  61  73 CALM      29.98R
HINCKLEY       FAIR      72  55  56 CALM      29.99S
CLOQUET        PTCLDY    70  54  56 CALM      30.00R
MCGREGOR       CLEAR     72  55  56 SW5       30.00R
$$
MNZ071>073-080-081-089-090-097-098-020200-
   Southwest Minnesota

CITY           SKY/WX    TMP DP  RH WIND       PRES   REMARKS
MONTEVIDEO     SUNNY     68  55  64 S6        30.00S
GRANITE FALLS  SUNNY     67  54  61 CALM      30.01S
CANBY          PTSUNNY   68  54  60 E9        29.99S
MARSHALL       CLOUDY    70  52  52 SE12      29.97S
REDWOOD FALLS  CLEAR     68  54  60 E6        29.99R
OLIVIA         SUNNY     64  52  63 SE5       30.00R
PIPESTONE      MOSUNNY   68  55  64 SE12G17   29.98S
WINDOM         PTCLDY    66  55  68 CALM      30.00R
WORTHINGTON    CLOUDY    66  54  63 E10       29.99S
JACKSON        CLOUDY    66  54  63 E7        30.00S
TRACY          CLOUDY    68  56  65 E5        30.00R
SLAYTON        CLOUDY    66  53  63 CALM      30.00F
$$
MNZ065>067-074>077-082>085-091>093-020200-
   South Central Minnesota

CITY           SKY/WX    TMP DP  RH WIND       PRES   REMARKS
MANKATO        CLEAR     66  54  63 E6        30.00S
NEW ULM        CLEAR     64  48  55 E5        30.00R
ST JAMES       CLEAR     66  57  72 E5        30.01R
FAIRMONT       CLEAR     64  52  63 NE6       29.99R
GLENCOE        CLEAR     67  56  69 CALM      30.00S
FARIBAULT      CLEAR     64  52  63 CALM      30.02R
OWATONNA       CLEAR     64  48  55 CALM      30.01S
WASECA         CLEAR     63  52  67 E5        30.03R
ALBERT LEA     CLEAR     63  50  63 E5        30.00R
$$
MNZ078>079-086>088-094>096-020200-
   Southeast Minnesota

CITY           SKY/WX    TMP DP  RH WIND       PRES   REMARKS
ROCHESTER      PTCLDY    62  53  72 NE3       30.01S
RED WING       CLEAR     70  54  56 CALM      29.98S
DODGE CENTER   CLEAR     63  55  77 CALM      30.01S
WINONA         CLEAR     70  55  60 NW3       29.99S
AUSTIN         PTCLDY    61  52  72 NE3       30.01R
PRESTON        MOCLDY    60  54  79 CALM      30.02R
$$
ABBREVIATIONS USED IN REMARKS
   TC - TEMPERATURES IN CELSIUS
  WCI - WIND CHILL INDEX
   HX - HEAT INDEX
  VSB - VISIBILITY
$$


USA.gov is the U.S. government's official web portal to all federal, state and local government web resources and services.